Home > Weather > Kodiak > Past weeks

Flag for USA Past Weather in Kodiak, Alaska, USA — Yesterday and Last 2 Weeks

Now
52 °F

Partly sunny.


Feels Like: 50 °F
Forecast: 45 / 56 °F
Wind: 7 mph from West

Location: Kodiak Weather Reporting Station

Current Time: May 24, 2016 at 9:52:59 AM

Latest Report: May 24, 2016 at 8:53 AM


Visibility: 10 mi

Pressure: 30.18 "Hg

Humidity: 59%

Dew Point: 38 °F

Location of KodiakLocation

Past Weather in Kodiak — Graph

°F

Kodiak Temperature Yesterday

Maximum temperature yesterday: 57 °F (at 4:53 PM)
Minimum temperature yesterday: 45 °F (at 6:53 AM)
Average temperature yesterday: 51 °F

High & Low Weather Summary for the Past Weeks

 TemperatureHumidityPressure
High67 °F (May 15, 5:53 PM)100% (May 10, 1:53 AM)30.41 "Hg (May 10, 1:53 AM)
Low36 °F (May 13, 5:53 AM)27% (May 15, 5:53 PM)29.67 "Hg (May 17, 6:53 AM)
Average49 °F76%30.06 "Hg
* Reported May 9 8:53 AM — May 24 8:53 AM, Kodiak, Weather by CustomWeather, © 2016

Note: Actual official high and low records may vary slightly from our data, if they occured in-between our weather recording intervals... More about our weather records

Advertising

Kodiak Weather History for the Previous 24 Hours

Scroll right to see more
 ConditionsComfort  
Time TempWeatherWind HumidityBarometerVisibility
8:53 AM
Tue, May 24
52 °FPartly sunny.7 mph59%30.18 "Hg10 mi
7:53 AM49 °FScattered clouds.7 mph66%30.17 "Hg10 mi
6:53 AM49 °FOvercast.No wind69%30.17 "Hg10 mi
5:53 AM48 °FPassing clouds.10 mph71%30.16 "Hg10 mi
4:53 AM48 °FOvercast.No wind74%30.16 "Hg10 mi
3:53 AM48 °FClear.8 mph74%30.14 "Hg10 mi
2:53 AM50 °FPassing clouds.3 mph66%30.14 "Hg10 mi
1:53 AM49 °FOvercast.9 mph71%30.14 "Hg10 mi
12:53 AM50 °FMostly cloudy.10 mph68%30.15 "Hg10 mi
11:53 PM
Mon, May 23
50 °FPassing clouds.7 mph66%30.15 "Hg10 mi
10:53 PM48 °FScattered clouds.5 mph71%30.14 "Hg9 mi
9:53 PM51 °FSunny.8 mph61%30.13 "Hg10 mi
8:53 PM54 °FPassing clouds.14 mph53%30.13 "Hg10 mi
7:53 PM55 °FSunny.12 mph51%30.13 "Hg10 mi
6:53 PM56 °FSunny.14 mph47%30.12 "Hg10 mi
5:53 PM57 °FSunny.13 mph42%30.13 "Hg10 mi
4:53 PM57 °FBroken clouds.10 mph41%30.13 "Hg10 mi
3:53 PM50 °FBroken clouds.9 mph74%30.14 "Hg10 mi
2:53 PM52 °FBroken clouds.13 mph64%30.13 "Hg10 mi
1:53 PM56 °FBroken clouds.13 mph36%30.12 "Hg10 mi
12:53 PM55 °FPartly sunny.13 mph37%30.13 "Hg10 mi
11:53 AM53 °FBroken clouds.17 mph39%30.12 "Hg10 mi
10:53 AM52 °FBroken clouds.16 mph41%30.11 "Hg10 mi
9:53 AM50 °FBroken clouds.10 mph39%30.12 "Hg10 mi
Weather by CustomWeather, © 2016

See weather overviewHow to use our weather pages